Time,TemperatureF,DewpointF,PressureIn,WindDirection,WindDirectionDegrees,WindSpeedMPH,WindSpeedGustMPH,Humidity,HourlyPrecipIn,Conditions,Clouds,dailyrainin,SoftwareType,DateUTC
2013-06-11 00:09:00,82.9,66.0,29.94,East,90,4.9,12.3,57,0.00,,,0.00,WUHU21636XXSP,2013-06-11 05:09:00,
2013-06-11 00:19:00,82.4,64.9,29.93,ESE,112,8.7,18.5,56,0.00,,,0.00,WUHU21636XXSP,2013-06-11 05:19:00,
2013-06-11 00:29:00,82.0,64.6,29.92,ESE,112,8.5,24.3,56,0.00,,,0.00,WUHU21636XXSP,2013-06-11 05:29:00,
2013-06-11 00:39:00,81.7,64.2,29.91,ESE,112,3.5,14.7,56,0.00,,,0.00,WUHU21636XXSP,2013-06-11 05:39:00,
2013-06-11 00:49:00,81.7,63.3,29.91,ESE,112,8.9,22.5,54,0.00,,,0.00,WUHU21636XXSP,2013-06-11 05:49:00,
2013-06-11 00:59:00,81.5,64.0,29.92,ESE,112,4.6,24.1,56,0.00,,,0.00,WUHU21636XXSP,2013-06-11 05:59:00,
2013-06-11 01:09:00,81.3,63.0,29.92,SE,135,2.2,21.4,54,0.00,,,0.00,WUHU21636XXSP,2013-06-11 06:09:00,
2013-06-11 01:19:00,81.3,63.0,29.93,SE,135,7.3,14.0,54,0.00,,,0.00,WUHU21636XXSP,2013-06-11 06:19:00,
2013-06-11 01:29:00,80.8,65.1,29.93,ESE,112,3.5,17.0,59,0.00,,,0.00,WUHU21636XXSP,2013-06-11 06:29:00,
2013-06-11 01:39:00,80.2,65.5,29.93,SE,135,2.9,17.4,61,0.00,,,0.00,WUHU21636XXSP,2013-06-11 06:39:00,
2013-06-11 01:49:00,79.5,64.4,29.92,SE,135,5.3,19.0,60,0.00,,,0.00,WUHU21636XXSP,2013-06-11 06:49:00,
2013-06-11 01:59:00,79.5,64.4,29.93,ESE,112,1.1,17.6,60,0.00,,,0.00,WUHU21636XXSP,2013-06-11 06:59:00,
2013-06-11 02:09:00,79.5,64.4,29.93,SE,135,3.8,11.8,60,0.00,,,0.00,WUHU21636XXSP,2013-06-11 07:09:00,
2013-06-11 02:19:00,79.3,64.2,29.92,SE,135,4.0,15.4,60,0.00,,,0.00,WUHU21636XXSP,2013-06-11 07:19:00,
2013-06-11 02:29:00,79.3,63.7,29.92,SE,135,2.2,17.8,59,0.00,,,0.00,WUHU21636XXSP,2013-06-11 07:29:00,
2013-06-11 02:39:00,79.2,63.5,29.92,SE,135,5.1,19.2,59,0.00,,,0.00,WUHU21636XXSP,2013-06-11 07:39:00,
2013-06-11 02:49:00,79.2,62.6,29.91,SSE,157,6.0,19.9,57,0.00,,,0.00,WUHU21636XXSP,2013-06-11 07:49:00,
2013-06-11 02:59:00,79.2,62.1,29.91,ESE,112,10.0,19.0,56,0.00,,,0.00,WUHU21636XXSP,2013-06-11 07:59:00,
2013-06-11 03:09:00,79.2,62.1,29.92,ENE,67,9.8,17.8,56,0.00,,,0.00,WUHU21636XXSP,2013-06-11 08:09:00,
2013-06-11 03:19:00,79.2,61.5,29.92,SE,135,2.4,20.5,55,0.00,,,0.00,WUHU21636XXSP,2013-06-11 08:19:00,
2013-06-11 03:29:00,79.2,62.6,29.92,East,90,5.5,21.4,57,0.00,,,0.00,WUHU21636XXSP,2013-06-11 08:29:00,
2013-06-11 03:39:00,78.8,63.3,29.91,SE,135,11.1,18.3,59,0.00,,,0.00,WUHU21636XXSP,2013-06-11 08:39:00,
2013-06-11 03:49:00,78.4,63.0,29.91,SE,135,5.1,16.5,59,0.00,,,0.00,WUHU21636XXSP,2013-06-11 08:49:00,
2013-06-11 03:59:00,78.1,63.1,29.91,SE,135,3.3,21.9,60,0.00,,,0.00,WUHU21636XXSP,2013-06-11 08:59:00,
2013-06-11 04:09:00,77.5,63.0,29.91,SE,135,7.1,13.1,61,0.00,,,0.00,WUHU21636XXSP,2013-06-11 09:09:00,
2013-06-11 04:19:00,77.2,62.6,29.91,SE,135,8.0,20.8,61,0.00,,,0.00,WUHU21636XXSP,2013-06-11 09:19:00,
2013-06-11 04:29:00,76.8,61.9,29.90,SE,135,7.1,18.7,60,0.00,,,0.00,WUHU21636XXSP,2013-06-11 09:29:00,
2013-06-11 04:39:00,76.6,61.7,29.90,SE,135,6.7,12.9,60,0.00,,,0.00,WUHU21636XXSP,2013-06-11 09:39:00,
2013-06-11 04:49:00,76.6,61.7,29.90,SE,135,6.9,19.0,60,0.00,,,0.00,WUHU21636XXSP,2013-06-11 09:49:00,
2013-06-11 04:59:00,76.3,61.3,29.90,SE,135,4.4,19.2,60,0.00,,,0.00,WUHU21636XXSP,2013-06-11 09:59:00,
2013-06-11 05:09:00,76.1,61.2,29.90,SSE,157,2.0,13.4,60,0.00,,,0.00,WUHU21636XXSP,2013-06-11 10:09:00,
2013-06-11 05:19:00,75.7,60.3,29.90,SSE,157,4.6,14.9,59,0.00,,,0.00,WUHU21636XXSP,2013-06-11 10:19:00,
2013-06-11 05:29:00,75.4,60.1,29.89,SE,135,1.3,10.0,59,0.00,,,0.00,WUHU21636XXSP,2013-06-11 10:29:00,
2013-06-11 05:39:00,74.8,59.5,29.89,SSE,157,4.9,11.1,59,0.00,,,0.00,WUHU21636XXSP,2013-06-11 10:39:00,
2013-06-11 05:49:00,74.3,58.5,29.89,South,180,6.0,12.3,58,0.00,,,0.00,WUHU21636XXSP,2013-06-11 10:49:00,
2013-06-11 05:59:00,73.9,57.6,29.90,SSE,157,4.0,15.2,57,0.00,,,0.00,WUHU21636XXSP,2013-06-11 10:59:00,
2013-06-11 06:09:00,73.8,56.8,29.90,SE,135,3.1,8.9,56,0.00,,,0.00,WUHU21636XXSP,2013-06-11 11:09:00,
2013-06-11 06:19:00,73.6,56.3,29.90,SE,135,3.3,5.1,55,0.00,,,0.00,WUHU21636XXSP,2013-06-11 11:19:00,
2013-06-11 06:29:00,73.4,56.1,29.90,SE,135,0.0,5.3,55,0.00,,,0.00,WUHU21636XXSP,2013-06-11 11:29:00,
2013-06-11 06:39:00,73.0,56.3,29.91,East,90,4.6,6.2,56,0.00,,,0.00,WUHU21636XXSP,2013-06-11 11:39:00,
2013-06-11 06:49:00,72.7,55.9,29.91,SE,135,3.1,4.6,56,0.00,,,0.00,WUHU21636XXSP,2013-06-11 11:49:00,
2013-06-11 06:59:00,72.7,55.4,29.91,SE,135,0.0,4.6,55,0.00,,,0.00,WUHU21636XXSP,2013-06-11 11:59:00,
2013-06-11 07:09:00,72.7,55.4,29.91,ESE,112,0.0,3.3,56,0.00,,,0.00,WUHU21636XXSP,2013-06-11 12:09:00,
2013-06-11 07:19:00,72.7,55.9,29.91,ESE,112,2.9,7.8,57,0.00,,,0.00,WUHU21636XXSP,2013-06-11 12:19:00,
2013-06-11 07:29:00,72.7,56.5,29.91,SE,135,3.5,6.4,57,0.00,,,0.00,WUHU21636XXSP,2013-06-11 12:29:00,
2013-06-11 07:39:00,72.9,56.5,29.92,ESE,112,2.2,7.3,57,0.00,,,0.00,WUHU21636XXSP,2013-06-11 12:39:00,
2013-06-11 07:49:00,73.0,56.7,29.92,ESE,112,4.4,4.4,57,0.00,,,0.00,WUHU21636XXSP,2013-06-11 12:49:00,
2013-06-11 07:59:00,73.0,56.7,29.91,SE,135,3.1,5.5,57,0.00,,,0.00,WUHU21636XXSP,2013-06-11 12:59:00,
2013-06-11 08:09:00,73.2,56.8,29.91,SE,135,2.9,5.3,57,0.00,,,0.00,WUHU21636XXSP,2013-06-11 13:09:00,
2013-06-11 08:19:00,73.0,56.7,29.92,SE,135,6.7,8.0,57,0.00,,,0.00,WUHU21636XXSP,2013-06-11 13:19:00,
2013-06-11 08:29:00,73.6,57.7,29.92,SE,135,3.5,8.2,58,0.00,,,0.00,WUHU21636XXSP,2013-06-11 13:29:00,
2013-06-11 08:39:00,73.6,57.2,29.91,SE,135,4.6,4.9,57,0.00,,,0.00,WUHU21636XXSP,2013-06-11 13:39:00,
2013-06-11 08:49:00,73.8,57.4,29.91,SE,135,3.1,11.6,57,0.00,,,0.00,WUHU21636XXSP,2013-06-11 13:49:00,
2013-06-11 08:59:00,74.1,57.2,29.91,SE,135,5.8,6.2,56,0.00,,,0.00,WUHU21636XXSP,2013-06-11 13:59:00,
2013-06-11 09:09:00,73.9,56.7,29.91,SE,135,3.3,10.0,55,0.00,,,0.00,WUHU21636XXSP,2013-06-11 14:09:00,
2013-06-11 09:19:00,74.3,57.9,29.91,SE,135,4.9,8.7,57,0.00,,,0.00,WUHU21636XXSP,2013-06-11 14:19:00,
2013-06-11 09:29:00,74.8,58.5,29.91,SE,135,0.0,9.6,55,0.00,,,0.00,WUHU21636XXSP,2013-06-11 14:29:00,
2013-06-11 09:39:00,75.9,57.6,29.90,SSW,202,3.1,6.7,53,0.00,,,0.00,WUHU21636XXSP,2013-06-11 14:39:00,
2013-06-11 09:49:00,76.8,57.2,29.90,SSW,202,4.2,13.8,51,0.00,,,0.00,WUHU21636XXSP,2013-06-11 14:49:00,
2013-06-11 09:59:00,78.4,57.0,29.90,SSW,202,9.6,12.9,48,0.00,,,0.00,WUHU21636XXSP,2013-06-11 14:59:00,
2013-06-11 10:09:00,79.0,56.8,29.90,SW,225,4.6,13.6,47,0.00,,,0.00,WUHU21636XXSP,2013-06-11 15:09:00,
2013-06-11 10:19:00,80.4,55.0,29.90,SW,225,4.9,12.9,42,0.00,,,0.00,WUHU21636XXSP,2013-06-11 15:19:00,
2013-06-11 10:29:00,81.1,56.3,29.90,SSW,202,6.4,9.1,41,0.00,,,0.00,WUHU21636XXSP,2013-06-11 15:29:00,
2013-06-11 10:39:00,81.7,56.3,29.90,SW,225,6.9,10.0,42,0.00,,,0.00,WUHU21636XXSP,2013-06-11 15:39:00,
2013-06-11 10:49:00,82.2,56.1,29.90,South,180,0.0,9.6,41,0.00,,,0.00,WUHU21636XXSP,2013-06-11 15:49:00,
2013-06-11 10:59:00,82.8,55.2,29.91,SSW,202,0.0,8.7,39,0.00,,,0.00,WUHU21636XXSP,2013-06-11 15:59:00,
2013-06-11 11:09:00,83.7,55.2,29.90,WNW,292,0.0,2.9,38,0.00,,,0.00,WUHU21636XXSP,2013-06-11 16:09:00,
2013-06-11 11:19:00,84.7,55.4,29.90,WNW,292,0.0,4.6,36,0.00,,,0.00,WUHU21636XXSP,2013-06-11 16:19:00,
2013-06-11 11:29:00,85.3,55.0,29.90,West,270,3.5,3.5,36,0.00,,,0.00,WUHU21636XXSP,2013-06-11 16:29:00,
2013-06-11 11:39:00,85.3,55.0,29.89,SW,225,4.4,4.4,36,0.00,,,0.00,WUHU21636XXSP,2013-06-11 16:39:00,
2013-06-11 11:49:00,85.3,55.9,29.90,West,270,3.5,4.4,38,0.00,,,0.00,WUHU21636XXSP,2013-06-11 16:49:00,
2013-06-11 11:59:00,85.6,55.4,29.89,WSW,247,0.0,3.5,39,0.00,,,0.00,WUHU21636XXSP,2013-06-11 16:59:00,
2013-06-11 12:09:00,86.5,55.4,29.89,WSW,247,0.0,5.5,35,0.00,,,0.00,WUHU21636XXSP,2013-06-11 17:09:00,
2013-06-11 12:19:00,86.9,55.8,29.88,SW,225,0.0,2.2,37,0.00,,,0.00,WUHU21636XXSP,2013-06-11 17:19:00,
2013-06-11 12:29:00,87.3,57.6,29.88,WSW,247,2.9,2.9,37,0.00,,,0.00,WUHU21636XXSP,2013-06-11 17:29:00,
2013-06-11 12:39:00,88.3,58.5,29.88,SW,225,3.1,3.1,35,0.00,,,0.00,WUHU21636XXSP,2013-06-11 17:39:00,
2013-06-11 12:49:00,89.4,58.6,29.88,South,180,4.4,8.7,36,0.00,,,0.00,WUHU21636XXSP,2013-06-11 17:49:00,
2013-06-11 12:59:00,90.3,58.6,29.88,SSW,202,0.0,8.9,34,0.00,,,0.00,WUHU21636XXSP,2013-06-11 17:59:00,
2013-06-11 13:09:00,90.7,63.0,29.88,SSW,202,0.0,2.9,40,0.00,,,0.00,WUHU21636XXSP,2013-06-11 18:09:00,
2013-06-11 13:19:00,91.9,56.8,29.88,South,180,1.7,8.0,33,0.00,,,0.00,WUHU21636XXSP,2013-06-11 18:19:00,
2013-06-11 13:29:00,92.3,62.8,29.87,SW,225,0.8,1.7,38,0.00,,,0.00,WUHU21636XXSP,2013-06-11 18:29:00,
2013-06-11 13:39:00,93.4,61.3,29.86,SW,225,0.0,4.2,35,0.00,,,0.00,WUHU21636XXSP,2013-06-11 18:39:00,
2013-06-11 13:49:00,94.3,60.4,29.86,SE,135,0.0,7.3,33,0.00,,,0.00,WUHU21636XXSP,2013-06-11 18:49:00,
2013-06-11 13:59:00,95.2,61.3,29.87,South,180,1.1,3.8,33,0.00,,,0.00,WUHU21636XXSP,2013-06-11 18:59:00,
2013-06-11 14:09:00,96.1,60.4,29.87,SSW,202,2.9,2.9,31,0.00,,,0.00,WUHU21636XXSP,2013-06-11 19:09:00,
2013-06-11 14:19:00,97.2,59.4,29.87,SW,225,0.8,4.4,29,0.00,,,0.00,WUHU21636XXSP,2013-06-11 19:19:00,
2013-06-11 14:29:00,97.9,57.7,29.87,WSW,247,3.5,4.0,27,0.00,,,0.00,WUHU21636XXSP,2013-06-11 19:29:00,
2013-06-11 14:39:00,98.6,57.4,29.86,WSW,247,0.0,3.5,26,0.00,,,0.00,WUHU21636XXSP,2013-06-11 19:39:00,
2013-06-11 14:49:00,99.3,57.9,29.86,WSW,247,1.1,1.3,26,0.00,,,0.00,WUHU21636XXSP,2013-06-11 19:49:00,
2013-06-11 14:59:00,100.0,57.4,29.86,West,270,3.5,4.4,25,0.00,,,0.00,WUHU21636XXSP,2013-06-11 19:59:00,
2013-06-11 15:09:00,100.8,62.6,29.85,WNW,292,0.6,3.5,29,0.00,,,0.00,WUHU21636XXSP,2013-06-11 20:09:00,
2013-06-11 15:19:00,100.6,59.0,29.85,West,270,0.0,3.1,26,0.00,,,0.00,WUHU21636XXSP,2013-06-11 20:19:00,
2013-06-11 15:29:00,100.8,58.1,29.84,WSW,247,0.0,1.3,25,0.00,,,0.00,WUHU21636XXSP,2013-06-11 20:29:00,
2013-06-11 15:39:00,101.5,59.7,29.84,WNW,292,0.0,2.9,26,0.00,,,0.00,WUHU21636XXSP,2013-06-11 20:39:00,
2013-06-11 15:49:00,102.0,62.4,29.83,NW,315,0.0,3.1,28,0.00,,,0.00,WUHU21636XXSP,2013-06-11 20:49:00,
2013-06-11 15:59:00,102.0,60.3,29.83,WNW,292,0.0,3.1,26,0.00,,,0.00,WUHU21636XXSP,2013-06-11 20:59:00,
2013-06-11 16:09:00,102.4,58.3,29.83,WNW,292,0.0,2.0,24,0.00,,,0.00,WUHU21636XXSP,2013-06-11 21:09:00,
2013-06-11 16:19:00,102.6,59.5,29.83,WNW,292,0.0,0.0,25,0.00,,,0.00,WUHU21636XXSP,2013-06-11 21:19:00,
2013-06-11 16:29:00,102.7,64.2,29.82,WNW,292,0.0,0.0,29,0.00,,,0.00,WUHU21636XXSP,2013-06-11 21:29:00,
2013-06-11 16:39:00,102.9,59.7,29.82,WNW,292,0.0,0.0,25,0.00,,,0.00,WUHU21636XXSP,2013-06-11 21:39:00,
2013-06-11 16:49:00,102.9,59.7,29.81,South,180,4.6,4.6,26,0.00,,,0.00,WUHU21636XXSP,2013-06-11 21:49:00,
2013-06-11 16:59:00,102.9,59.7,29.81,SE,135,0.0,4.6,28,0.00,,,0.00,WUHU21636XXSP,2013-06-11 21:59:00,
2013-06-11 17:09:00,103.6,61.5,29.81,SSE,157,2.0,6.7,26,0.00,,,0.00,WUHU21636XXSP,2013-06-11 22:09:00,
2013-06-11 17:20:00,103.5,61.3,29.80,SE,135,0.6,8.9,26,0.00,,,0.00,WUHU21636XXSP,2013-06-11 22:20:00,
2013-06-11 17:30:00,103.3,61.2,29.79,South,180,1.7,12.0,24,0.00,,,0.00,WUHU21636XXSP,2013-06-11 22:30:00,
2013-06-11 17:40:00,103.6,61.5,29.79,SE,135,4.4,4.4,25,0.00,,,0.00,WUHU21636XXSP,2013-06-11 22:40:00,
2013-06-11 17:50:00,103.6,59.2,29.78,SE,135,0.0,4.4,24,0.00,,,0.00,WUHU21636XXSP,2013-06-11 22:50:00,
2013-06-11 18:00:00,103.8,59.4,29.77,South,180,3.5,3.5,24,0.00,,,0.00,WUHU21636XXSP,2013-06-11 23:00:00,
2013-06-11 18:10:00,103.8,58.3,29.76,ESE,112,4.6,4.6,24,0.00,,,0.00,WUHU21636XXSP,2013-06-11 23:10:00,
2013-06-11 18:20:00,103.3,57.7,29.76,SE,135,2.2,4.6,23,0.00,,,0.00,WUHU21636XXSP,2013-06-11 23:20:00,
2013-06-11 18:30:00,102.9,57.6,29.75,ESE,112,3.8,11.4,23,0.00,,,0.00,WUHU21636XXSP,2013-06-11 23:30:00,
2013-06-11 18:40:00,102.9,57.6,29.75,SE,135,4.2,9.8,20,0.00,,,0.00,WUHU21636XXSP,2013-06-11 23:40:00,
2013-06-11 18:50:00,102.9,57.6,29.75,SSW,202,6.7,12.9,20,0.00,,,0.00,WUHU21636XXSP,2013-06-11 23:50:00,
2013-06-11 19:00:00,102.4,51.8,29.75,South,180,1.7,12.0,19,0.00,,,0.00,WUHU21636XXSP,2013-06-12 00:00:00,
2013-06-11 19:10:00,102.2,51.6,29.74,SSW,202,3.1,14.5,19,0.00,,,0.00,WUHU21636XXSP,2013-06-12 00:10:00,
2013-06-11 19:20:00,102.0,49.8,29.74,SSE,157,10.2,19.2,19,0.00,,,0.00,WUHU21636XXSP,2013-06-12 00:20:00,
2013-06-11 19:30:00,101.8,49.6,29.73,SSE,157,5.3,21.2,19,0.00,,,0.00,WUHU21636XXSP,2013-06-12 00:30:00,
2013-06-11 19:40:00,101.1,52.7,29.73,SSE,157,0.0,13.8,20,0.00,,,0.00,WUHU21636XXSP,2013-06-12 00:40:00,
2013-06-11 19:50:00,100.0,54.0,29.72,SE,135,4.2,14.3,22,0.00,,,0.00,WUHU21636XXSP,2013-06-12 00:50:00,
2013-06-11 20:00:00,99.1,51.1,29.72,SSE,157,5.8,13.1,20,0.00,,,0.00,WUHU21636XXSP,2013-06-12 01:00:00,
2013-06-11 20:10:00,97.7,51.1,29.72,WSW,247,14.3,21.0,21,0.00,,,0.00,WUHU21636XXSP,2013-06-12 01:10:00,
2013-06-11 20:20:00,97.9,50.0,29.72,South,180,10.5,26.1,20,0.00,,,0.00,WUHU21636XXSP,2013-06-12 01:20:00,
2013-06-11 20:30:00,97.9,50.0,29.72,SSW,202,11.1,23.2,20,0.00,,,0.00,WUHU21636XXSP,2013-06-12 01:30:00,
2013-06-11 20:40:00,97.5,49.8,29.72,SSW,202,6.2,26.3,21,0.00,,,0.00,WUHU21636XXSP,2013-06-12 01:40:00,
2013-06-11 20:50:00,96.4,50.0,29.72,SSW,202,10.0,20.1,21,0.00,,,0.00,WUHU21636XXSP,2013-06-12 01:50:00,
2013-06-11 21:00:00,95.9,49.5,29.72,SSE,157,9.8,25.7,22,0.00,,,0.00,WUHU21636XXSP,2013-06-12 02:00:00,
2013-06-11 21:10:00,96.4,48.9,29.71,SSW,202,11.8,27.5,20,0.00,,,0.00,WUHU21636XXSP,2013-06-12 02:10:00,
2013-06-11 21:20:00,98.4,48.7,29.72,SSW,202,23.4,36.4,19,0.00,,,0.00,WUHU21636XXSP,2013-06-12 02:20:00,
2013-06-11 21:30:00,98.4,50.5,29.72,SSW,202,14.9,39.8,20,0.00,,,0.00,WUHU21636XXSP,2013-06-12 02:30:00,
2013-06-11 21:40:00,97.5,50.9,29.74,WSW,247,17.8,38.9,21,0.00,,,0.00,WUHU21636XXSP,2013-06-12 02:40:00,
2013-06-11 21:50:00,96.3,52.0,29.74,SSW,202,18.3,31.3,23,0.00,,,0.00,WUHU21636XXSP,2013-06-12 02:50:00,
2013-06-11 22:00:00,94.8,53.1,29.74,SW,225,12.0,29.3,25,0.00,,,0.00,WUHU21636XXSP,2013-06-12 03:00:00,
2013-06-11 22:10:00,93.7,54.3,29.74,SW,225,20.3,35.1,27,0.00,,,0.00,WUHU21636XXSP,2013-06-12 03:10:00,
2013-06-11 22:20:00,93.4,55.0,29.74,SW,225,17.8,30.8,27,0.00,,,0.00,WUHU21636XXSP,2013-06-12 03:20:00,
2013-06-11 22:30:00,92.8,54.7,29.75,SW,225,13.8,27.5,28,0.00,,,0.00,WUHU21636XXSP,2013-06-12 03:30:00,
2013-06-11 22:40:00,92.3,54.1,29.78,NW,315,2.9,18.1,28,0.00,,,0.00,WUHU21636XXSP,2013-06-12 03:40:00,
2013-06-11 22:50:00,91.2,54.5,29.78,NNW,337,2.9,6.4,29,0.00,,,0.00,WUHU21636XXSP,2013-06-12 03:50:00,
2013-06-11 23:00:00,91.0,53.2,29.78,SW,225,13.1,21.9,28,0.00,,,0.00,WUHU21636XXSP,2013-06-12 04:00:00,
2013-06-11 23:10:00,92.7,53.4,29.77,SW,225,21.4,32.6,27,0.00,,,0.00,WUHU21636XXSP,2013-06-12 04:10:00,
2013-06-11 23:20:00,92.8,53.6,29.77,SW,225,12.3,32.8,27,0.00,,,0.00,WUHU21636XXSP,2013-06-12 04:20:00,
2013-06-11 23:30:00,92.1,52.9,29.77,SW,225,9.8,26.8,28,0.00,,,0.00,WUHU21636XXSP,2013-06-12 04:30:00,
2013-06-11 23:40:00,91.6,53.6,29.77,WSW,247,11.1,24.6,28,0.00,,,0.00,WUHU21636XXSP,2013-06-12 04:40:00,
2013-06-11 23:50:00,90.9,53.1,29.77,SW,225,10.5,28.1,28,0.00,,,0.00,WUHU21636XXSP,2013-06-12 04:50:00,